1528441200.85,24677,21.38,74282.8,21.31,-12.15,-13.47,0,*4A
1528441202.06,24678,21.31,74278.5,21.29,-13.19,-14.61,0,*42
1528441203.26,24679,21.38,74282.5,21.29,-12.39,-13.73,0,*44
1528441204.52,24680,21.38,74280.5,21.29,-11.37,-12.61,0,*4D
1528441205.78,24681,21.38,74282.8,21.31,-10.93,-12.15,0,*49
1528441207.02,24682,21.31,74282.0,21.31,-11.01,-12.29,0,*4F
1528441208.28,24683,21.31,74278.8,21.31,-11.19,-12.57,0,*4E
1528441209.53,24684,21.38,74280.5,21.37,-11.73,-13.01,0,*41
1528441210.82,24685,21.38,74280.0,21.35,-12.57,-13.97,0,*48
1528441212.08,24686,21.38,74282.5,21.35,-13.43,-14.83,0,*4D
1528441213.35,24687,21.38,74282.8,21.35,-13.83,-15.25,0,*4D
1528441214.63,24688,21.38,74280.5,21.35,-13.83,-15.29,0,*4E
1528441215.87,24689,21.38,74282.5,21.31,-14.19,-15.71,0,*42
1528441217.09,24690,21.38,74280.5,21.29,-14.37,-15.95,0,*45
1528441218.33,24691,21.31,74278.8,21.29,-14.37,-15.81,0,*41
1528441219.56,24692,21.38,74282.5,21.25,-13.65,-14.93,0,*4C
1528441220.8,24693,21.38,74280.3,21.25,-13.55,-15.01,0,*44
1528441222.0,24694,21.38,74280.0,21.25,-14.29,-15.67,0,*4F
1528441223.29,24695,21.38,74282.3,21.23,-13.83,-15.21,0,*4D
1528441224.49,24696,21.38,74278.5,21.21,-13.51,-14.65,0,*42
1528441225.68,24697,21.38,74280.8,21.21,-13.07,-14.37,0,*47
1528441226.88,24698,21.31,74276.5,21.21,-12.89,-14.15,0,*4F
1528441228.1,24699,21.38,74282.8,21.23,-12.29,-13.69,0,*4A
1528441229.35,24700,21.38,74282.0,21.23,-12.35,-13.55,0,*49
1528441230.62,24701,21.38,74280.8,21.23,-11.77,-13.01,0,*4C
1528441231.86,24702,21.38,74280.0,21.23,-11.89,-13.15,0,*4B
1528441233.13,24703,21.38,74282.8,21.23,-11.97,-13.29,0,*4A
1528441234.4,24704,21.38,74282.5,21.25,-12.65,-13.97,0,*40
1528441235.63,24705,21.31,74278.5,21.25,-12.83,-14.15,0,*44
1528441236.88,24706,21.38,74280.8,21.25,-14.15,-15.57,0,*49
1528441238.08,24707,21.38,74282.8,21.25,-13.15,-14.37,0,*48
1528441239.34,24708,21.38,74280.5,21.25,-12.65,-13.97,0,*4C
1528441240.55,24709,21.38,74280.8,21.25,-12.93,-14.29,0,*46
1528441241.77,24710,21.38,74282.0,21.25,-12.29,-13.51,0,*47
1528441243.0,24711,21.31,74282.0,21.25,-12.11,-13.43,0,*4E
1528441244.23,24712,21.31,74280.0,21.27,-12.29,-13.65,0,*40
1528441245.49,24713,21.38,74280.5,21.27,-12.83,-14.23,0,*44
1528441246.75,24714,21.38,74282.3,21.25,-12.79,-13.97,0,*4C
1528441248.02,24715,21.31,74276.3,21.25,-11.29,-12.53,0,*42
1528441249.25,24716,21.31,74280.0,21.27,-11.15,-12.29,0,*41
1528441250.52,24717,21.38,74282.5,21.27,-11.29,-12.43,0,*43
1528441251.8,24718,21.31,74280.8,21.31,-11.37,-12.61,0,*44
1528441253.09,24719,21.38,74282.8,21.31,-11.37,-12.57,0,*40
1528441254.35,24720,21.38,74280.0,21.35,-11.73,-12.97,0,*42
1528441255.63,24721,21.38,74280.8,21.35,-12.71,-14.01,0,*4B
1528441256.91,24722,21.38,74284.5,21.35,-12.15,-13.37,0,*48
1528441258.17,24723,21.38,74280.5,21.35,-11.81,-13.11,0,*43
1528441259.42,24724,21.38,74280.3,21.35,-13.11,-14.43,0,*4F
1528441260.67,24725,21.38,74280.3,21.35,-12.57,-13.93,0,*47
1528441261.9,24726,21.31,74280.0,21.35,-12.97,-14.37,0,*41
1528441263.14,24727,21.38,74286.0,21.35,-12.97,-14.15,0,*40
1528441264.42,24728,21.31,74276.5,21.35,-11.81,-13.01,0,*49
1528441265.67,24729,21.38,74282.5,21.35,-11.85,-13.23,0,*4C
1528441266.9,24730,21.38,74282.5,21.35,-12.43,-13.69,0,*43
1528441268.13,24731,21.38,74282.5,21.37,-12.65,-13.93,0,*41
1528441269.36,24732,21.38,74284.5,21.37,-12.15,-13.43,0,*48
1528441270.61,24733,21.38,74282.0,21.37,-12.65,-13.83,0,*42
1528441271.81,24734,21.38,74284.5,21.37,-12.43,-13.69,0,*45
1528441273.05,24735,21.31,74278.8,21.37,-13.43,-14.79,0,*43
1528441274.26,24736,21.38,74282.5,21.37,-12.25,-13.43,0,*4F
1528441275.52,24737,21.38,74284.5,21.37,-12.11,-13.37,0,*4A
1528441276.75,24738,21.31,74278.0,21.37,-12.53,-13.69,0,*48
1528441278.01,24739,21.38,74280.0,21.37,-12.11,-13.37,0,*44
1528441279.27,24740,21.38,74280.5,21.37,-11.67,-12.65,0,*4E
1528441280.5,24741,21.38,74280.0,21.41,-10.93,-12.07,0,*40
1528441281.74,24742,21.38,74282.5,21.41,-10.89,-12.07,0,*48
1528441282.97,24743,21.38,74280.8,21.41,-12.03,-13.33,0,*4F
1528441284.21,24744,21.38,74284.0,21.41,-11.33,-12.47,0,*4A
1528441285.47,24745,21.38,74282.0,21.43,-11.73,-13.19,0,*47
1528441286.72,24746,21.31,74282.0,21.43,-11.77,-13.07,0,*4F
1528441288.01,24747,21.38,74280.5,21.43,-12.71,-14.05,0,*4E
1528441289.26,24748,21.38,74282.0,21.43,-12.47,-13.83,0,*4D
1528441290.52,24749,21.38,74282.8,21.43,-13.43,-14.93,0,*4F
1528441291.74,24750,21.38,74282.0,21.41,-14.15,-15.63,0,*4F
1528441292.96,24751,21.31,74280.8,21.41,-13.73,-15.25,0,*4B
1528441294.19,24752,21.38,74282.8,21.39,-12.93,-14.11,0,*4E
1528441295.43,24753,21.38,74282.5,21.39,-12.25,-13.51,0,*41
1528441296.7,24754,21.38,74284.3,21.39,-11.93,-13.23,0,*4D
1528441297.96,24755,21.38,74280.5,21.41,-12.07,-13.33,0,*4C
1528441299.18,24756,21.38,74284.3,21.41,-12.21,-13.43,0,*4C
1528441300.41,24757,21.38,74286.0,21.41,-12.35,-13.55,0,*4F
1528441301.65,24758,21.38,74284.3,21.39,-12.97,-14.19,0,*48
1528441302.86,24759,21.38,74282.5,21.41,-12.47,-13.55,0,*44
1528441304.12,24760,21.38,74284.8,21.41,-11.59,-12.75,0,*41
1528441305.37,24761,21.38,74286.0,21.43,-12.03,-13.29,0,*46
1528441306.65,24762,21.38,74280.8,21.43,-12.61,-13.87,0,*45
1528441307.88,24763,21.38,74282.5,21.43,-13.07,-14.19,0,*45
1528441309.14,24764,21.38,74280.3,21.43,-13.47,-14.93,0,*44
1528441310.34,24765,21.38,74284.3,21.41,-13.07,-14.29,0,*42
1528441311.58,24766,21.38,74282.3,21.41,-12.43,-13.61,0,*4B
1528441312.78,24767,21.38,74286.5,21.41,-12.43,-13.73,0,*49
1528441314.05,24768,21.38,74284.0,21.41,-12.75,-14.01,0,*41
1528441315.31,24769,21.38,74286.3,21.41,-13.87,-15.43,0,*4B
1528441316.59,24770,21.38,74284.8,21.39,-14.93,-16.27,0,*4F
1528441317.85,24771,21.38,74286.0,21.35,-14.89,-16.27,0,*49
1528441319.11,24772,21.38,74286.0,21.35,-14.43,-15.75,0,*48
1528441320.38,24773,21.38,74284.8,21.31,-14.55,-15.95,0,*44
1528441321.59,24774,21.38,74286.3,21.29,-14.61,-15.95,0,*4D
1528441322.85,24775,21.38,74282.5,21.29,-16.09,-17.55,0,*4E
1528441324.09,24776,21.38,74280.3,21.25,-16.13,-17.49,0,*47
1528441325.32,24777,21.38,74284.8,21.23,-16.37,-17.83,0,*40
1528441326.54,24778,21.38,74280.0,21.21,-16.23,-17.69,0,*4C
1528441327.76,24779,21.38,74284.3,21.17,-15.39,-16.59,0,*42
1528441328.96,24780,21.38,74284.3,21.17,-15.53,-16.89,0,*45
1528441330.18,24781,21.38,74282.5,21.13,-16.37,-17.79,0,*4F
1528441331.4,24782,21.38,74282.5,21.13,-14.43,-15.63,0,*44
1528441332.65,24783,21.38,74282.0,21.11,-15.15,-16.65,0,*40
1528441333.86,24784,21.38,74282.8,21.07,-15.07,-16.45,0,*41
1528441335.1,24785,21.38,74284.3,21.07,-15.99,-17.63,0,*42
1528441336.35,24786,21.38,74280.8,21.03,-15.71,-17.21,0,*45
1528441337.6,24787,21.38,74282.0,21.01,-14.79,-16.17,0,*4B
1528441338.83,24788,21.38,74282.3,20.99,-14.23,-15.67,0,*4F
1528441340.09,24789,21.38,74282.3,20.99,-14.19,-15.57,0,*44
1528441341.33,24790,21.38,74280.0,20.99,-13.93,-15.21,0,*48
1528441342.58,24791,21.38,74284.5,20.99,-13.93,-15.21,0,*49
1528441343.85,24792,21.38,74282.0,20.99,-14.79,-16.13,0,*4B
1528441345.11,24793,21.38,74286.0,20.99,-13.23,-14.51,0,*46
1528441346.34,24794,21.38,74280.8,20.99,-14.23,-15.71,0,*45
1528441347.57,24795,21.38,74282.5,20.97,-14.43,-15.71,0,*4C
1528441348.79,24796,21.38,74282.5,20.97,-13.29,-14.61,0,*44
1528441350.03,24797,21.38,74280.5,20.97,-14.01,-15.29,0,*45
1528441351.26,24798,21.38,74282.0,20.95,-14.29,-15.75,0,*4B
1528441352.51,24799,21.38,74284.3,20.95,-13.55,-14.75,0,*47
1528441353.74,24800,21.38,74284.3,20.97,-13.51,-14.75,0,*4E
1528441355.02,24801,21.38,74282.8,20.95,-14.75,-16.13,0,*4E
1528441356.27,24802,21.38,74282.0,20.93,-14.01,-15.43,0,*4E
1528441357.48,24803,21.38,74280.3,20.93,-13.55,-14.89,0,*4E
1528441358.73,24804,21.38,74282.3,20.95,-13.23,-14.55,0,*4F
1528441359.96,24805,21.38,74280.5,20.95,-14.61,-16.03,0,*4E
1528441361.2,24806,21.38,74282.0,20.93,-15.81,-17.25,0,*41
1528441362.42,24807,21.38,74282.0,20.93,-15.15,-16.51,0,*4F
1528441363.64,24808,21.38,74286.3,20.91,-15.35,-16.97,0,*4A
1528441364.86,24809,21.38,74284.3,20.89,-15.49,-16.89,0,*46
1528441366.11,24810,21.38,74280.3,20.85,-15.89,-17.35,0,*48
1528441367.35,24811,21.38,74280.8,20.81,-14.69,-15.89,0,*47
1528441368.58,24812,21.38,74280.5,20.81,-14.33,-15.67,0,*4B
1528441369.83,24813,21.38,74282.0,20.81,-14.19,-15.57,0,*41
1528441371.07,24814,21.38,74284.5,20.83,-14.01,-15.29,0,*44
1528441372.28,24815,21.38,74280.8,20.79,-13.11,-14.23,0,*4D
1528441373.51,24816,21.38,74284.5,20.83,-12.75,-14.15,0,*4D
1528441374.73,24817,21.38,74284.0,20.83,-12.83,-14.15,0,*45
1528441375.97,24818,21.38,74284.5,20.83,-12.61,-13.87,0,*4A
1528441377.2,24819,21.38,74280.8,20.83,-13.01,-14.29,0,*4F
1528441378.45,24820,21.38,74284.5,20.85,-13.51,-14.83,0,*46
1528441379.68,24821,21.38,74282.8,20.85,-13.65,-14.89,0,*4A
1528441380.91,24822,21.38,74282.8,20.83,-14.55,-15.95,0,*47
1528441382.13,24823,21.38,74284.0,20.83,-14.15,-15.29,0,*45
1528441383.33,24824,21.38,74282.8,20.83,-14.61,-15.95,0,*46
1528441384.57,24825,21.38,74284.5,20.83,-14.01,-15.29,0,*46
1528441385.82,24826,21.38,74282.0,20.81,-13.93,-15.21,0,*43
1528441387.07,24827,21.38,74282.8,20.83,-13.61,-14.93,0,*45
1528441388.32,24828,21.38,74286.0,20.81,-12.57,-13.73,0,*45
1528441389.54,24829,21.38,74284.5,20.81,-12.29,-13.55,0,*49
1528441390.73,24830,21.38,74286.3,20.83,-12.43,-13.69,0,*40
1528441392.0,24831,21.38,74282.5,20.85,-12.15,-13.37,0,*4F
1528441393.24,24832,21.38,74286.8,20.85,-12.83,-14.11,0,*40
1528441394.48,24833,21.38,74286.8,20.89,-13.33,-14.69,0,*48
1528441395.76,24834,21.38,74286.8,20.85,-13.29,-14.83,0,*4C
1528441397.01,24835,21.38,74286.8,20.89,-13.79,-15.07,0,*49
1528441398.25,24836,21.38,74284.0,20.85,-12.65,-13.73,0,*4F
1528441399.5,24837,21.38,74284.3,20.89,-12.21,-13.33,0,*46
1528441400.72,24838,21.38,74282.5,20.91,-12.35,-13.65,0,*46
1528441401.97,24839,21.38,74286.0,20.91,-12.65,-13.83,0,*4A
1528441403.19,24840,21.38,74286.3,20.89,-12.93,-14.23,0,*49
1528441404.41,24841,21.38,74280.8,20.91,-14.11,-15.49,0,*40
1528441405.6,24842,21.38,74282.0,20.91,-13.11,-14.19,0,*40
1528441406.8,24843,21.38,74282.8,20.91,-12.39,-13.65,0,*46
1528441408.02,24844,21.38,74284.8,20.91,-12.53,-13.69,0,*41
1528441409.28,24845,21.38,74282.3,20.91,-13.97,-15.35,0,*46
1528441410.51,24846,21.38,74286.5,20.91,-13.51,-14.93,0,*42
1528441411.72,24847,21.38,74286.3,20.93,-12.79,-13.93,0,*4D
1528441412.93,24848,21.38,74284.8,20.93,-12.29,-13.55,0,*4D
1528441414.18,24849,21.38,74286.0,20.93,-12.07,-13.33,0,*40
1528441415.37,24850,21.38,74280.8,20.91,-12.39,-13.65,0,*44
1528441416.59,24851,21.38,74282.3,20.93,-12.35,-13.55,0,*48
1528441417.84,24852,21.38,74282.5,20.93,-12.15,-13.33,0,*49
1528441419.07,24853,21.38,74280.8,20.93,-13.01,-14.19,0,*43
1528441420.32,24854,21.38,74286.0,20.95,-11.89,-13.11,0,*4F
1528441421.59,24855,21.38,74282.8,20.95,-12.15,-13.29,0,*43
1528441422.78,24856,21.38,74280.5,20.97,-12.39,-13.69,0,*48
1528441424.02,24857,21.38,74282.8,20.97,-11.85,-13.01,0,*43
1528441425.25,24858,21.38,74282.0,20.97,-12.11,-13.11,0,*43
1528441426.49,24859,21.38,74284.3,20.99,-12.61,-13.93,0,*41
1528441427.75,24860,21.38,74280.8,20.99,-13.51,-14.79,0,*4A
1528441429.0,24861,21.38,74286.5,20.99,-13.55,-14.83,0,*4A
1528441430.29,24862,21.38,74286.3,20.99,-13.97,-15.39,0,*47
1528441431.5,24863,21.38,74282.5,20.97,-14.15,-15.25,0,*48
1528441432.75,24864,21.38,74286.0,20.95,-11.97,-12.97,0,*4C
1528441434.03,24865,21.38,74286.3,20.99,-11.63,-12.83,0,*4F
1528441435.26,24866,21.38,74286.0,21.01,-11.45,-12.65,0,*40
1528441436.48,24867,21.38,74282.0,21.01,-11.77,-12.93,0,*49
1528441437.71,24868,21.38,74284.8,21.01,-11.93,-13.07,0,*40
1528441438.95,24869,21.38,74280.3,21.03,-11.89,-13.11,0,*4F
1528441440.22,24870,21.38,74286.8,21.03,-12.11,-13.29,0,*4E
1528441441.5,24871,21.38,74286.3,21.03,-13.37,-14.83,0,*4D
1528441442.77,24872,21.38,74282.8,21.03,-14.75,-16.23,0,*47
1528441444.04,24873,21.38,74286.5,20.99,-13.33,-14.55,0,*42
1528441445.24,24874,21.38,74286.8,21.01,-13.07,-14.33,0,*42
1528441446.43,24875,21.38,74286.0,21.01,-13.15,-14.29,0,*4B
1528441447.71,24876,21.38,74284.5,20.99,-12.11,-13.37,0,*45
1528441448.9,24877,21.38,74282.0,21.01,-12.47,-13.73,0,*47
1528441450.09,24878,21.38,74286.8,21.01,-13.15,-14.29,0,*46
1528441451.29,24879,21.38,74286.8,21.01,-12.47,-13.65,0,*4E
1528441452.51,24880,21.38,74284.8,20.99,-12.93,-14.19,0,*4D
1528441453.76,24881,21.38,74284.0,21.01,-12.75,-14.05,0,*49
1528441454.96,24882,21.38,74284.3,21.01,-14.61,-15.95,0,*41
1528441456.24,24883,21.38,74284.5,20.99,-13.79,-14.97,0,*4D
1528441457.49,24884,21.38,74288.0,20.99,-13.65,-14.79,0,*47
1528441458.77,24885,21.38,74286.5,20.95,-14.51,-15.89,0,*44
1528441460.0,24886,21.38,74284.3,20.97,-13.69,-14.97,0,*47
1528441461.27,24887,21.38,74288.0,20.95,-13.97,-15.25,0,*4D
1528441462.54,24888,21.38,74286.3,20.95,-12.65,-13.97,0,*41
1528441463.74,24889,21.38,74286.5,20.97,-12.29,-13.55,0,*44
1528441464.96,24890,21.38,74284.5,20.97,-12.15,-13.43,0,*44
1528441466.21,24891,21.38,74284.5,20.97,-12.15,-13.37,0,*46
1528441467.43,24892,21.38,74286.3,20.97,-11.97,-13.11,0,*48
1528441468.68,24893,21.38,74284.5,20.99,-11.81,-12.97,0,*4F
1528441469.93,24894,21.38,74284.3,20.99,-11.93,-13.11,0,*44
1528441471.15,24895,21.38,74284.5,21.01,-12.47,-13.79,0,*41
1528441472.4,24896,21.38,74284.3,21.01,-13.87,-15.35,0,*41
1528441473.66,24897,21.38,74286.8,20.99,-12.61,-13.83,0,*42
1528441474.87,24898,21.38,74286.0,21.01,-13.43,-14.65,0,*43
1528441476.12,24899,21.38,74286.0,20.99,-13.65,-14.97,0,*4B
1528441477.37,24900,21.38,74280.0,20.99,-13.33,-14.65,0,*44
1528441478.61,24901,21.38,74286.8,20.99,-12.83,-14.19,0,*44
1528441479.82,24902,21.38,74286.8,21.01,-12.93,-14.15,0,*4A
1528441481.07,24903,21.38,74286.0,20.99,-13.51,-14.93,0,*4A
1528441482.3,24904,21.38,74282.3,20.97,-13.23,-14.55,0,*4C
1528441483.52,24905,21.38,74286.8,20.97,-13.37,-14.61,0,*4F
1528441484.75,24906,21.38,74284.5,20.97,-13.69,-14.97,0,*4E
1528441486.0,24907,21.38,74282.8,20.95,-13.73,-15.01,0,*48
1528441487.27,24908,21.38,74286.8,20.95,-13.97,-15.25,0,*4B
1528441488.52,24909,21.38,74286.5,20.95,-13.55,-14.97,0,*4C
1528441489.75,24910,21.38,74286.0,20.95,-14.29,-15.63,0,*42
1528441491.0,24911,21.38,74284.3,20.95,-13.73,-15.01,0,*4F
1528441492.2,24912,21.38,74284.3,20.91,-13.07,-14.23,0,*4A
1528441493.42,24913,21.38,74284.3,20.93,-12.79,-14.15,0,*44
1528441494.66,24914,21.38,74280.3,20.93,-12.61,-13.87,0,*46
1528441495.89,24915,21.38,74282.5,20.93,-12.43,-13.61,0,*4F
1528441497.08,24916,21.38,74284.8,20.93,-13.07,-14.29,0,*46
1528441498.31,24917,21.38,74284.0,20.91,-13.47,-14.83,0,*41
1528441499.51,24918,21.38,74286.3,20.93,-14.19,-15.67,0,*4B
1528441500.76,24919,21.38,74286.0,20.93,-12.75,-14.05,0,*43
1528441501.98,24920,21.38,74284.5,20.93,-12.35,-13.51,0,*4B
1528441503.18,24921,21.38,74282.8,20.93,-12.03,-13.15,0,*4F
1528441504.43,24922,21.38,74284.3,20.91,-11.97,-13.33,0,*44
1528441505.67,24923,21.38,74284.8,20.93,-12.57,-13.79,0,*46
1528441506.87,24924,21.38,74286.5,20.93,-13.55,-14.89,0,*4A
1528441508.11,24925,21.38,74284.5,20.95,-13.15,-14.43,0,*4F
1528441509.34,24926,21.38,74286.8,20.97,-11.67,-12.89,0,*49
1528441510.54,24927,21.38,74284.3,20.97,-11.01,-12.25,0,*4E
1528441511.74,24928,21.38,74286.5,20.97,-11.15,-12.29,0,*48
1528441512.99,24929,21.38,74286.5,21.01,-11.51,-12.79,0,*42
1528441514.26,24930,21.38,74286.3,20.99,-11.55,-12.83,0,*4B
1528441515.49,24931,21.38,74284.3,21.01,-11.45,-12.65,0,*43
1528441516.69,24932,21.38,74286.8,21.01,-12.29,-13.51,0,*4F
1528441517.91,24933,21.38,74284.8,21.03,-12.29,-13.47,0,*4B
1528441519.18,24934,21.38,74286.8,21.03,-12.15,-13.37,0,*44
1528441520.4,24935,21.38,74286.5,21.03,-12.03,-13.23,0,*47
1528441521.58,24936,21.38,74288.5,21.05,-12.29,-13.47,0,*48
1528441522.82,24937,21.38,74286.5,21.05,-11.77,-13.01,0,*43
1528441524.08,24938,21.38,74286.3,21.03,-11.45,-12.71,0,*4D
1528441525.32,24939,21.38,74284.3,21.03,-12.15,-13.47,0,*4E
1528441526.52,24940,21.38,74286.8,21.05,-12.29,-13.55,0,*4A
1528441527.76,24941,21.38,74290.0,21.05,-11.55,-12.61,0,*45
1528441529.01,24942,21.38,74284.8,21.07,-11.01,-12.11,0,*42
1528441530.26,24943,21.38,74286.8,21.11,-11.33,-12.47,0,*46
1528441531.51,24944,21.38,74280.0,21.11,-11.33,-12.47,0,*41
1528441532.71,24945,21.38,74286.3,21.13,-10.93,-12.03,0,*49
1528441533.95,24946,21.38,74284.5,21.15,-10.49,-11.73,0,*4F
1528441535.18,24947,21.38,74288.8,21.17,-10.41,-11.45,0,*41
1528441536.42,24948,21.38,74286.3,21.19,-10.93,-12.15,0,*49
1528441537.67,24949,21.38,74284.0,21.19,-12.03,-13.33,0,*46
1528441538.91,24950,21.38,74284.3,21.21,-11.33,-12.61,0,*43
1528441540.14,24951,21.38,74286.8,21.21,-11.11,-12.35,0,*43
1528441541.4,24952,21.38,74284.5,21.23,-11.45,-12.71,0,*43
1528441542.67,24953,21.38,74284.3,21.23,-11.85,-13.29,0,*42
1528441543.92,24954,21.38,74284.8,21.23,-11.77,-12.97,0,*4C
1528441545.17,24955,21.38,74286.3,21.23,-13.73,-15.35,0,*44
1528441546.4,24956,21.38,74286.0,21.21,-14.51,-15.95,0,*48
1528441547.62,24957,21.38,74284.0,21.19,-14.19,-15.67,0,*43
1528441548.87,24958,21.38,74286.5,21.17,-12.79,-14.05,0,*47
1528441550.1,24959,21.38,74284.8,21.17,-14.29,-15.81,0,*48
1528441551.32,24960,21.38,74284.0,21.15,-13.43,-14.69,0,*4C
1528441552.59,24961,21.38,74286.8,21.15,-13.29,-14.75,0,*4C
1528441553.81,24962,21.38,74284.3,21.13,-13.11,-14.47,0,*43
1528441555.06,24963,21.38,74284.3,21.13,-13.87,-15.35,0,*49
1528441556.28,24964,21.38,74286.8,21.13,-13.47,-14.83,0,*4E
1528441557.54,24965,21.38,74286.3,21.11,-14.05,-15.49,0,*4B
1528441558.76,24966,21.38,74286.8,21.07,-13.69,-15.07,0,*48
1528441559.99,24967,21.38,74280.8,21.07,-14.37,-15.95,0,*4E
1528441561.25,24968,21.38,74284.5,21.11,-13.93,-15.39,0,*49
1528441562.49,24969,21.38,74286.3,21.05,-13.61,-15.01,0,*4B
1528441563.74,24970,21.38,74286.5,21.03,-14.55,-16.03,0,*44
1528441564.97,24971,21.38,74286.0,21.01,-13.51,-14.93,0,*4F
1528441566.19,24972,21.38,74284.8,20.99,-12.93,-14.19,0,*41
1528441567.41,24973,21.38,74286.0,21.01,-12.79,-14.29,0,*47
1528441568.61,24974,21.38,74284.3,21.01,-13.73,-15.15,0,*45
1528441569.84,24975,21.38,74286.3,20.99,-14.23,-15.67,0,*43
1528441571.12,24976,21.38,74284.0,20.99,-13.37,-14.83,0,*49
1528441572.38,24977,21.38,74286.8,20.99,-13.23,-14.55,0,*46
1528441573.57,24978,21.38,74286.5,20.97,-12.89,-14.15,0,*42
1528441574.77,24979,21.38,74286.8,20.97,-12.39,-13.73,0,*4F
1528441575.99,24980,21.38,74286.8,20.97,-11.67,-12.89,0,*45
1528441577.24,24981,21.38,74290.0,20.97,-11.67,-12.83,0,*4E
1528441578.49,24982,21.38,74286.5,21.03,-11.41,-12.57,0,*4C
1528441579.73,24983,21.38,74284.3,21.01,-12.61,-13.87,0,*42
1528441580.98,24984,21.38,74286.5,21.01,-13.01,-14.43,0,*4D
1528441582.17,24985,21.38,74286.0,21.01,-12.89,-14.19,0,*42
1528441583.39,24986,21.38,74284.3,21.01,-11.89,-13.15,0,*49
1528441584.61,24987,21.38,74286.8,21.01,-12.07,-13.51,0,*4D
1528441585.85,24988,21.38,74284.0,21.03,-13.15,-14.43,0,*46
1528441587.09,24989,21.38,74286.8,21.03,-12.03,-13.37,0,*45
1528441588.34,24990,21.38,74284.8,21.03,-11.85,-13.11,0,*44
1528441589.59,24991,21.38,74286.5,21.03,-11.97,-13.11,0,*46
1528441590.8,24992,21.38,74286.5,21.05,-11.73,-13.11,0,*49
1528441592.01,24993,21.38,74284.5,21.05,-12.57,-13.69,0,*42
1528441593.26,24994,21.38,74286.0,21.05,-11.59,-12.75,0,*44
1528441594.5,24995,21.38,74286.5,21.05,-11.07,-12.15,0,*48
1528441595.72,24996,21.38,74284.5,21.07,-11.23,-12.39,0,*41
1528441596.98,24997,21.38,74284.3,21.07,-11.93,-12.93,0,*4B
1528441598.2,24998,21.38,74286.5,21.11,-11.19,-12.43,0,*4C
1528441599.45,24999,21.38,74286.8,21.11,-11.23,-12.53,0,*45
1528441600.67,25000,21.38,74284.5,21.13,-10.57,-11.77,0,*48
1528441601.92,25001,21.38,74284.5,21.15,-11.07,-12.25,0,*4F
1528441603.17,25002,21.38,74282.8,21.15,-11.07,-12.29,0,*40
1528441604.42,25003,21.38,74286.3,21.15,-11.41,-12.75,0,*4A
1528441605.64,25004,21.38,74286.0,21.15,-12.25,-13.43,0,*48
1528441606.92,25005,21.44,74288.5,21.15,-11.33,-12.57,0,*49
1528441608.14,25006,21.38,74286.5,21.19,-11.11,-12.29,0,*4F
1528441609.36,25007,21.38,74286.8,21.17,-12.53,-13.65,0,*4C
1528441610.56,25008,21.38,74286.0,21.17,-11.23,-12.43,0,*42
1528441611.83,25009,21.38,74284.3,21.19,-11.37,-12.65,0,*4C
1528441613.1,25010,21.38,74286.0,21.19,-12.07,-13.37,0,*42
1528441614.36,25011,21.38,74286.5,21.19,-11.77,-13.01,0,*42
1528441615.59,25012,21.38,74284.0,21.19,-11.23,-12.39,0,*4A
1528441616.85,25013,21.38,74284.3,21.19,-11.51,-12.65,0,*47
1528441618.1,25014,21.38,74286.3,21.21,-12.07,-13.61,0,*4E
1528441619.32,25015,21.38,74286.5,21.21,-13.61,-14.89,0,*4F
1528441620.53,25016,21.38,74284.3,21.17,-13.43,-14.65,0,*4B
1528441621.75,25017,21.38,74284.3,21.17,-12.79,-14.19,0,*49
1528441622.97,25018,21.38,74288.5,21.19,-13.65,-15.07,0,*4A
1528441624.19,25019,21.38,74284.8,21.15,-13.55,-14.89,0,*43
1528441625.45,25020,21.38,74282.0,21.15,-13.23,-14.47,0,*4A
1528441626.69,25021,21.38,74286.0,21.15,-11.77,-13.15,0,*48
1528441627.96,25022,21.38,74284.3,21.15,-11.59,-12.83,0,*49
1528441629.22,25023,21.38,74286.3,21.15,-11.41,-12.71,0,*4C
1528441630.45,25024,21.38,74286.8,21.17,-11.45,-12.79,0,*45
1528441631.66,25025,21.38,74282.3,21.17,-11.01,-12.21,0,*49
1528441632.93,25026,21.38,74286.0,21.19,-10.79,-11.93,0,*40
1528441634.18,25027,21.38,74286.3,21.19,-11.07,-12.29,0,*4B
1528441635.38,25028,21.38,74282.5,21.21,-11.01,-12.25,0,*45
1528441636.6,25029,21.38,74286.8,21.21,-12.35,-13.73,0,*42
1528441637.81,25030,21.38,74284.3,21.21,-12.47,-13.87,0,*44
1528441639.03,25031,21.38,74286.5,21.21,-11.37,-12.93,0,*45
1528441640.26,25032,21.38,74286.0,21.21,-11.67,-13.19,0,*40
1528441641.47,25033,21.38,74286.0,21.21,-12.65,-13.93,0,*42
1528441642.72,25034,21.38,74284.0,21.19,-13.15,-14.51,0,*41
1528441643.95,25035,21.38,74286.3,21.19,-13.51,-14.89,0,*45
1528441645.17,25036,21.38,74284.5,21.17,-11.73,-12.97,0,*43
1528441646.37,25037,21.38,74284.0,21.17,-11.41,-12.89,0,*4C
1528441647.65,25038,21.38,74286.8,21.19,-11.93,-13.37,0,*46
1528441648.92,25039,21.38,74286.3,21.19,-12.15,-13.61,0,*49
1528441650.14,25040,21.38,74284.5,21.17,-11.97,-13.51,0,*43
1528441651.37,25041,21.38,74286.0,21.17,-11.59,-13.19,0,*4C
1528441652.62,25042,21.38,74286.5,21.17,-12.35,-13.97,0,*40
1528441653.82,25043,21.38,74288.8,21.17,-13.55,-15.07,0,*49
1528441655.02,25044,21.38,74286.5,21.17,-12.25,-13.69,0,*46
1528441656.26,25045,21.38,74284.3,21.17,-12.57,-14.05,0,*4F
1528441657.51,25046,21.38,74284.5,21.15,-12.83,-14.23,0,*43
1528441658.75,25047,21.38,74286.5,21.13,-12.15,-13.61,0,*4A
1528441659.97,25048,21.38,74284.5,21.13,-12.39,-13.83,0,*47
1528441661.21,25049,21.38,74286.0,21.15,-12.03,-13.61,0,*45
1528441662.43,25050,21.38,74282.5,21.13,-13.73,-15.21,0,*4F
1528441663.66,25051,21.38,74284.8,21.13,-13.29,-14.61,0,*44
1528441664.93,25052,21.38,74284.0,21.07,-12.07,-13.29,0,*44
1528441666.18,25053,21.38,74288.3,21.11,-10.97,-12.35,0,*45
1528441667.4,25054,21.38,74284.5,21.13,-10.57,-11.97,0,*47
1528441668.65,25055,21.38,74286.5,21.15,-11.77,-13.55,0,*4F
1528441669.92,25056,21.38,74286.3,21.15,-11.89,-13.29,0,*46
1528441671.19,25057,21.38,74284.8,21.15,-11.59,-13.01,0,*40
1528441672.43,25058,21.38,74282.0,21.15,-11.77,-13.23,0,*43
1528441673.7,25059,21.38,74286.0,21.15,-12.61,-14.01,0,*41
1528441674.95,25060,21.38,74284.5,21.15,-12.15,-13.55,0,*4E
1528441676.22,25061,21.38,74286.3,21.15,-12.15,-13.61,0,*48
1528441677.49,25062,21.38,74286.3,21.15,-13.29,-15.01,0,*45
1528441678.72,25063,21.38,74286.5,21.13,-13.55,-14.83,0,*42
1528441679.94,25064,21.38,74284.8,21.13,-12.25,-13.61,0,*48
1528441681.16,25065,21.38,74284.8,21.13,-12.29,-13.61,0,*45
1528441682.44,25066,21.38,74284.3,21.11,-11.77,-13.01,0,*4A
1528441683.68,25067,21.38,74286.3,21.13,-11.97,-13.29,0,*4D
1528441684.92,25068,21.38,74284.3,21.13,-11.51,-12.83,0,*49
1528441686.13,25069,21.38,74284.3,21.13,-12.57,-13.73,0,*43
1528441687.35,25070,21.38,74286.0,21.13,-13.33,-14.69,0,*44
1528441688.58,25071,21.38,74284.5,21.13,-13.61,-14.89,0,*4C
1528441689.84,25072,21.38,74286.0,21.07,-12.57,-13.83,0,*43
1528441691.12,25073,21.38,74288.0,21.11,-12.15,-13.37,0,*4C
1528441692.35,25074,21.38,74288.3,21.11,-13.19,-14.65,0,*46
1528441693.6,25075,21.38,74284.8,21.07,-13.55,-14.83,0,*40
1528441694.86,25076,21.38,74286.8,21.07,-13.83,-15.25,0,*45